Location: ??????
(55.6361°N, 38.0803°E)
Time: 02:25:58
(UTC+00:00)

ARIANE 5 R/B - Pass Details

Date: 30 March 2020
Orbit: 748 x 795 km, 98.6° (Epoch: 31 May)

Event Time Altitude Azimuth Distance (km) Brightness Sun altitude
Rises 01:35:28 0° 13° (NNE) 3,272 6.4 -12.6°
Reaches altitude 10° 01:37:56 10° 5° (N) 2,347 5.4 -12.3°
Maximum altitude 01:42:37 36° 300° (WNW) 1,225 3.3 -11.7°
Enters shadow 01:46:25 15° 240° (WSW) 2,028 4.0 -11.2°
